カタログに戻る

ONEWEB-0540

運用中通信PO
NORAD 54645·PAYLOAD·🇬🇧 United Kingdom

打ち上げ Dec 8, 2022 から Cape Canaveral Space Force Station

Loading…

次のパス (今後24時間)

TLE

最新Source: CelesTrak SupGP

元期: Sep 14, 2026, 15:25 UTC

1 54645C 22166D   26257.64251574 -.00000322  00000+0 -78000-3 0  2570
2 54645  87.9270 226.1927 0002150  85.8293  23.0728 13.21821604    12

AllMySatでONEWEB-0540をリアルタイム追跡

Download on the App Store